SKU011 KLAX-KBFL

Flight info

Callsign SKU011
Flight time N/A
Altitude 30000
Route GMN7 GMN FASTO2
Aircraft A320/M-SDE3FGHIRWY/LB1

Departure

Time N/A
Airport Los Angeles International Airport (KLAX)

Arrival

Time 2026-04-21 02:32
Airport Meadows Field (KBFL)
Time Latitude Longitude Altitude Speed Heading
2026-04-21 02:26 35.27884 -118.86313 3804 ft 195 kts 336°
2026-04-21 02:26 35.28953 -118.87295 3676 ft 191 kts 316°
2026-04-21 02:27 35.29816 -118.88478 3555 ft 187 kts 313°
2026-04-21 02:27 35.30646 -118.89671 3432 ft 181 kts 313°
2026-04-21 02:27 35.31469 -118.90823 3317 ft 179 kts 312°
2026-04-21 02:27 35.32246 -118.92013 3209 ft 179 kts 312°
2026-04-21 02:28 35.33077 -118.93131 3132 ft 178 kts 316°
2026-04-21 02:28 35.33945 -118.94215 2951 ft 178 kts 317°
2026-04-21 02:28 35.34822 -118.95283 2734 ft 176 kts 316°
2026-04-21 02:28 35.35685 -118.96326 2506 ft 172 kts 317°
2026-04-21 02:29 35.36522 -118.97336 2293 ft 162 kts 316°
2026-04-21 02:29 35.37284 -118.98255 2095 ft 145 kts 315°
2026-04-21 02:29 35.37969 -118.99081 1910 ft 135 kts 316°
2026-04-21 02:29 35.38637 -118.99886 1739 ft 132 kts 316°
2026-04-21 02:30 35.39291 -119.00675 1559 ft 134 kts 316°
2026-04-21 02:30 35.39932 -119.01447 1395 ft 131 kts 315°
2026-04-21 02:30 35.40584 -119.02234 1231 ft 133 kts 316°
2026-04-21 02:30 35.41251 -119.03039 1046 ft 133 kts 313°
2026-04-21 02:31 35.41906 -119.03830 888 ft 135 kts 313°
2026-04-21 02:31 35.42570 -119.04631 710 ft 133 kts 315°
2026-04-21 02:31 35.43220 -119.05417 543 ft 130 kts 316°
2026-04-21 02:31 35.43828 -119.06158 504 ft 106 kts 315°
2026-04-21 02:32 35.44116 -119.06511 510 ft 19 kts 323°
2026-04-21 02:32 35.44140 -119.06528 510 ft 10 kts 326°
2026-04-21 02:32 35.44231 -119.06598 512 ft 13 kts 352°
2026-04-21 02:32 35.44299 -119.06573 512 ft 6 kts 59°
2026-04-21 02:33 35.44301 -119.06523 511 ft 7 kts 109°
2026-04-21 02:33 35.44231 -119.06421 508 ft 14 kts 131°
2026-04-21 02:33 35.44162 -119.06336 506 ft 14 kts 135°
2026-04-21 02:33 35.44089 -119.06248 503 ft 15 kts 135°
2026-04-21 02:34 35.44010 -119.06152 501 ft 16 kts 134°
2026-04-21 02:34 35.43943 -119.06069 502 ft 13 kts 135°
2026-04-21 02:34 35.43879 -119.05989 501 ft 13 kts 134°
2026-04-21 02:34 35.43839 -119.05941 500 ft 7 kts 136°
2026-04-21 02:35 35.43819 -119.05917 501 ft 6 kts 136°
2026-04-21 02:35 35.43794 -119.05887 501 ft 4 kts 136°
2026-04-21 02:35 35.43771 -119.05860 502 ft 5 kts 135°
2026-04-21 02:35 35.43734 -119.05816 502 ft 15 kts 135°
2026-04-21 02:36 35.43657 -119.05722 500 ft 16 kts 135°
2026-04-21 02:36 35.43576 -119.05622 499 ft 19 kts 136°
2026-04-21 02:36 35.43480 -119.05505 492 ft 20 kts 134°
2026-04-21 02:36 35.43379 -119.05388 484 ft 19 kts 137°
2026-04-21 02:37 35.43283 -119.05274 480 ft 19 kts 135°
2026-04-21 02:37 35.43201 -119.05173 485 ft 15 kts 135°
2026-04-21 02:37 35.43130 -119.05086 486 ft 14 kts 137°
2026-04-21 02:37 35.43062 -119.05007 483 ft 14 kts 136°
2026-04-21 02:38 35.42998 -119.04927 487 ft 13 kts 134°
2026-04-21 02:38 35.42939 -119.04854 486 ft 11 kts 135°
2026-04-21 02:38 35.42883 -119.04786 480 ft 12 kts 136°
2026-04-21 02:38 35.42818 -119.04710 477 ft 14 kts 137°
2026-04-21 02:39 35.42768 -119.04650 484 ft 6 kts 123°
2026-04-21 02:39 35.42780 -119.04607 484 ft 5 kts 56°
2026-04-21 02:39 35.42794 -119.04582 483 ft 3 kts 58°
2026-04-21 02:39 35.42813 -119.04546 478 ft 4 kts 50°
2026-04-21 02:40 35.42828 -119.04526 480 ft 2 kts 55°
2026-04-21 02:40 35.42830 -119.04523 481 ft 0 kts 55°